Time,TemperatureF,DewpointF,PressureIn,WindDirection,WindDirectionDegrees,WindSpeedMPH,WindSpeedGustMPH,Humidity,HourlyPrecipIn,Conditions,Clouds,dailyrainin,SoftwareType,DateUTC
2013-01-23 00:00:00,61.9,50.4,30.26,North,356,0.0,0.0,66,0.00,,CLR,0.00,VWS V14.01,2013-01-23 05:00:00,
2013-01-23 00:02:00,61.9,50.4,30.26,North,356,0.0,0.0,66,0.00,,CLR,0.00,VWS V14.01,2013-01-23 05:02:00,
2013-01-23 00:03:00,61.8,50.7,30.26,North,356,1.0,1.0,67,0.00,,CLR,0.00,VWS V14.01,2013-01-23 05:03:00,
2013-01-23 00:08:00,61.6,50.5,30.26,NW,307,2.0,4.0,67,0.00,,CLR,0.00,VWS V14.01,2013-01-23 05:08:00,
2013-01-23 00:13:00,61.2,50.2,30.26,NW,307,2.0,4.0,67,0.00,,CLR,0.00,VWS V14.01,2013-01-23 05:13:00,
2013-01-23 00:18:00,60.7,49.7,30.26,NW,308,1.0,5.0,67,0.00,,CLR,0.00,VWS V14.01,2013-01-23 05:18:00,
2013-01-23 00:23:00,60.2,49.6,30.26,NW,308,2.0,5.0,68,0.00,,CLR,0.00,VWS V14.01,2013-01-23 05:23:00,
2013-01-23 00:28:00,59.7,49.9,30.26,WNW,298,3.0,5.0,70,0.00,,CLR,0.00,VWS V14.01,2013-01-23 05:28:00,
2013-01-23 00:33:00,59.3,49.5,30.26,NW,305,1.0,5.0,70,0.00,,CLR,0.00,VWS V14.01,2013-01-23 05:33:00,
2013-01-23 00:38:00,58.7,49.0,30.26,NW,313,0.0,5.0,70,0.00,,CLR,0.00,VWS V14.01,2013-01-23 05:38:00,
2013-01-23 00:43:00,58.2,48.8,30.27,NW,311,4.0,5.0,71,0.00,,CLR,0.00,VWS V14.01,2013-01-23 05:43:00,
2013-01-23 00:48:00,57.8,48.8,30.26,NW,304,3.0,5.0,72,0.00,,CLR,0.00,VWS V14.01,2013-01-23 05:48:00,
2013-01-23 00:53:00,57.4,48.8,30.26,WNW,300,2.0,5.0,73,0.00,,CLR,0.00,VWS V14.01,2013-01-23 05:53:00,
2013-01-23 00:58:00,57.2,48.3,30.26,NW,315,3.0,5.0,72,0.00,,CLR,0.00,VWS V14.01,2013-01-23 05:58:00,
2013-01-23 01:03:00,56.8,47.9,30.26,WNW,296,1.0,4.0,72,0.00,,CLR,0.00,VWS V14.01,2013-01-23 06:03:00,
2013-01-23 01:08:00,56.5,47.6,30.25,NW,320,3.0,5.0,72,0.00,,CLR,0.00,VWS V14.01,2013-01-23 06:08:00,
2013-01-23 01:13:00,56.4,47.5,30.26,NW,311,0.0,5.0,72,0.00,,CLR,0.00,VWS V14.01,2013-01-23 06:13:00,
2013-01-23 01:18:00,56.2,47.3,30.26,NW,313,0.0,5.0,72,0.00,,CLR,0.00,VWS V14.01,2013-01-23 06:18:00,
2013-01-23 01:23:00,56.0,47.5,30.26,WNW,300,3.0,5.0,73,0.00,,CLR,0.00,VWS V14.01,2013-01-23 06:23:00,
2013-01-23 01:28:00,55.8,47.3,30.26,NW,317,2.0,6.0,73,0.00,,CLR,0.00,VWS V14.01,2013-01-23 06:28:00,
2013-01-23 01:33:00,55.6,47.5,30.26,WNW,289,2.0,6.0,74,0.00,,CLR,0.00,VWS V14.01,2013-01-23 06:33:00,
2013-01-23 01:38:00,55.5,47.4,30.26,NW,305,2.0,6.0,74,0.00,,CLR,0.00,VWS V14.01,2013-01-23 06:38:00,
2013-01-23 01:43:00,55.4,47.3,30.25,NNW,327,3.0,6.0,74,0.00,,CLR,0.00,VWS V14.01,2013-01-23 06:43:00,
2013-01-23 01:48:00,55.3,46.8,30.25,NW,305,0.0,6.0,73,0.00,,CLR,0.00,VWS V14.01,2013-01-23 06:48:00,
2013-01-23 01:53:00,55.0,46.5,30.25,NW,318,2.0,6.0,73,0.00,,CLR,0.00,VWS V14.01,2013-01-23 06:53:00,
2013-01-23 01:58:00,54.9,46.8,30.25,NW,315,3.0,6.0,74,0.00,,CLR,0.00,VWS V14.01,2013-01-23 06:58:00,
2013-01-23 02:03:00,54.8,46.0,30.26,NW,316,5.0,5.0,72,0.00,,CLR,0.00,VWS V14.01,2013-01-23 07:03:00,
2013-01-23 02:08:00,54.5,46.0,30.26,NNW,332,0.0,6.0,73,0.00,,CLR,0.00,VWS V14.01,2013-01-23 07:08:00,
2013-01-23 02:13:00,54.3,45.8,30.25,NW,316,4.0,6.0,73,0.00,,CLR,0.00,VWS V14.01,2013-01-23 07:13:00,
2013-01-23 02:18:00,54.3,46.2,30.26,WNW,301,0.0,6.0,74,0.00,,CLR,0.00,VWS V14.01,2013-01-23 07:18:00,
2013-01-23 02:23:00,54.3,46.6,30.26,WNW,298,1.0,6.0,75,0.00,,CLR,0.00,VWS V14.01,2013-01-23 07:23:00,
2013-01-23 02:28:00,54.3,46.2,30.26,NW,304,3.0,6.0,74,0.00,,CLR,0.00,VWS V14.01,2013-01-23 07:28:00,
2013-01-23 02:33:00,54.3,46.2,30.26,WNW,303,3.0,6.0,74,0.00,,CLR,0.00,VWS V14.01,2013-01-23 07:33:00,
2013-01-23 02:38:00,54.3,45.8,30.25,NW,313,2.0,6.0,73,0.00,,CLR,0.00,VWS V14.01,2013-01-23 07:38:00,
2013-01-23 02:43:00,54.3,45.8,30.26,NW,318,3.0,6.0,73,0.00,,CLR,0.00,VWS V14.01,2013-01-23 07:43:00,
2013-01-23 02:48:00,54.3,45.5,30.26,WNW,303,5.0,6.0,72,0.00,,CLR,0.00,VWS V14.01,2013-01-23 07:48:00,
2013-01-23 02:53:00,54.3,45.5,30.26,NW,312,0.0,6.0,72,0.00,,CLR,0.00,VWS V14.01,2013-01-23 07:53:00,
2013-01-23 02:58:00,54.2,45.8,30.26,WNW,298,1.0,6.0,73,0.00,,CLR,0.00,VWS V14.01,2013-01-23 07:58:00,
2013-01-23 03:03:00,54.2,45.4,30.26,NW,322,1.0,5.0,72,0.00,,CLR,0.00,VWS V14.01,2013-01-23 08:03:00,
2013-01-23 03:08:00,54.2,45.4,30.26,NW,309,1.0,6.0,72,0.00,,CLR,0.00,VWS V14.01,2013-01-23 08:08:00,
2013-01-23 03:13:00,54.1,45.7,30.26,NW,309,2.0,6.0,73,0.00,,CLR,0.00,VWS V14.01,2013-01-23 08:13:00,
2013-01-23 03:18:00,54.1,45.7,30.26,NW,307,0.0,6.0,73,0.00,,CLR,0.00,VWS V14.01,2013-01-23 08:18:00,
2013-01-23 03:23:00,54.1,45.3,30.26,NW,307,4.0,6.0,72,0.00,,CLR,0.00,VWS V14.01,2013-01-23 08:23:00,
2013-01-23 03:28:00,54.0,45.2,30.26,WNW,291,2.0,6.0,72,0.00,,CLR,0.00,VWS V14.01,2013-01-23 08:28:00,
2013-01-23 03:33:00,53.9,45.1,30.26,WNW,298,3.0,6.0,72,0.00,,CLR,0.00,VWS V14.01,2013-01-23 08:33:00,
2013-01-23 03:38:00,53.9,45.1,30.26,NW,308,3.0,6.0,72,0.00,,CLR,0.00,VWS V14.01,2013-01-23 08:38:00,
2013-01-23 03:43:00,53.8,44.6,30.26,NW,304,2.0,7.0,71,0.00,,CLR,0.00,VWS V14.01,2013-01-23 08:43:00,
2013-01-23 03:48:00,53.7,44.5,30.26,WNW,295,3.0,7.0,71,0.00,,CLR,0.00,VWS V14.01,2013-01-23 08:48:00,
2013-01-23 03:54:00,53.6,44.1,30.26,NW,315,0.0,7.0,70,0.00,,CLR,0.00,VWS V14.01,2013-01-23 08:54:00,
2013-01-23 03:59:00,53.5,44.0,30.26,NW,324,4.0,7.0,70,0.00,,CLR,0.00,VWS V14.01,2013-01-23 08:59:00,
2013-01-23 04:04:00,53.5,43.6,30.26,NW,320,2.0,4.0,69,0.00,,CLR,0.00,VWS V14.01,2013-01-23 09:04:00,
2013-01-23 04:09:00,53.4,43.5,30.26,NW,314,2.0,5.0,69,0.00,,CLR,0.00,VWS V14.01,2013-01-23 09:09:00,
2013-01-23 04:14:00,53.4,43.5,30.26,NNW,327,2.0,5.0,69,0.00,,CLR,0.00,VWS V14.01,2013-01-23 09:14:00,
2013-01-23 04:19:00,53.3,43.8,30.26,WNW,303,2.0,6.0,70,0.00,,CLR,0.00,VWS V14.01,2013-01-23 09:19:00,
2013-01-23 04:24:00,53.2,43.7,30.26,WNW,299,3.0,6.0,70,0.00,,CLR,0.00,VWS V14.01,2013-01-23 09:24:00,
2013-01-23 04:29:00,53.2,43.7,30.27,NW,310,2.0,6.0,70,0.00,,CLR,0.00,VWS V14.01,2013-01-23 09:29:00,
2013-01-23 04:34:00,53.2,42.9,30.26,NW,323,5.0,6.0,68,0.00,,CLR,0.00,VWS V14.01,2013-01-23 09:34:00,
2013-01-23 04:39:00,53.1,42.5,30.26,NW,318,4.0,6.0,67,0.00,,CLR,0.00,VWS V14.01,2013-01-23 09:39:00,
2013-01-23 04:44:00,53.1,42.8,30.26,NW,324,6.0,7.0,68,0.00,,CLR,0.00,VWS V14.01,2013-01-23 09:44:00,
2013-01-23 04:49:00,53.1,42.8,30.25,NNW,328,2.0,7.0,68,0.00,,CLR,0.00,VWS V14.01,2013-01-23 09:49:00,
2013-01-23 04:54:00,53.1,42.5,30.26,NW,307,2.0,7.0,67,0.00,,CLR,0.00,VWS V14.01,2013-01-23 09:54:00,
2013-01-23 04:59:00,53.1,43.2,30.26,WNW,301,2.0,8.0,69,0.00,,CLR,0.00,VWS V14.01,2013-01-23 09:59:00,
2013-01-23 05:04:00,53.0,42.7,30.26,NW,313,0.0,6.0,68,0.00,,CLR,0.00,VWS V14.01,2013-01-23 10:04:00,
2013-01-23 05:09:00,53.0,43.1,30.27,NW,306,5.0,6.0,69,0.00,,CLR,0.00,VWS V14.01,2013-01-23 10:09:00,
2013-01-23 05:14:00,53.0,43.5,30.27,WNW,299,4.0,7.0,70,0.00,,CLR,0.00,VWS V14.01,2013-01-23 10:14:00,
2013-01-23 05:19:00,53.0,43.1,30.27,NW,314,3.0,7.0,69,0.00,,CLR,0.00,VWS V14.01,2013-01-23 10:19:00,
2013-01-23 05:24:00,52.9,43.0,30.27,NW,310,4.0,7.0,69,0.00,,CLR,0.00,VWS V14.01,2013-01-23 10:24:00,
2013-01-23 05:29:00,52.8,43.3,30.27,NW,319,2.0,7.0,70,0.00,,CLR,0.00,VWS V14.01,2013-01-23 10:29:00,
2013-01-23 05:34:00,52.8,42.9,30.27,NNW,328,1.0,7.0,69,0.00,,CLR,0.00,VWS V14.01,2013-01-23 10:34:00,
2013-01-23 05:39:00,52.7,43.2,30.28,NW,324,3.0,7.0,70,0.00,,CLR,0.00,VWS V14.01,2013-01-23 10:39:00,
2013-01-23 05:44:00,52.7,43.2,30.29,NW,313,3.0,7.0,70,0.00,,CLR,0.00,VWS V14.01,2013-01-23 10:44:00,
2013-01-23 05:49:00,52.7,43.2,30.28,NNW,338,2.0,7.0,70,0.00,,CLR,0.00,VWS V14.01,2013-01-23 10:49:00,
2013-01-23 05:54:00,52.6,43.5,30.29,NW,305,3.0,7.0,71,0.00,,CLR,0.00,VWS V14.01,2013-01-23 10:54:00,
2013-01-23 05:59:00,52.6,43.5,30.28,NW,311,2.0,7.0,71,0.00,,CLR,0.00,VWS V14.01,2013-01-23 10:59:00,
2013-01-23 06:04:00,52.5,43.4,30.28,NW,319,1.0,5.0,71,0.00,,CLR,0.00,VWS V14.01,2013-01-23 11:04:00,
2013-01-23 06:09:00,52.5,43.4,30.28,NW,318,0.0,5.0,71,0.00,,CLR,0.00,VWS V14.01,2013-01-23 11:09:00,
2013-01-23 06:14:00,52.4,43.3,30.29,NW,316,2.0,5.0,71,0.00,,CLR,0.00,VWS V14.01,2013-01-23 11:14:00,
2013-01-23 06:19:00,52.4,43.7,30.29,NW,319,0.0,6.0,72,0.00,,CLR,0.00,VWS V14.01,2013-01-23 11:19:00,
2013-01-23 06:24:00,52.4,43.3,30.29,NW,321,4.0,6.0,71,0.00,,CLR,0.00,VWS V14.01,2013-01-23 11:24:00,
2013-01-23 06:29:00,52.4,43.7,30.30,NW,319,2.0,6.0,72,0.00,,CLR,0.00,VWS V14.01,2013-01-23 11:29:00,
2013-01-23 06:34:00,52.3,43.5,30.30,NW,309,2.0,6.0,72,0.00,,CLR,0.00,VWS V14.01,2013-01-23 11:34:00,
2013-01-23 06:39:00,52.2,43.5,30.30,NW,308,1.0,6.0,72,0.00,,CLR,0.00,VWS V14.01,2013-01-23 11:39:00,
2013-01-23 06:44:00,52.2,43.5,30.29,NW,317,4.0,6.0,72,0.00,,CLR,0.00,VWS V14.01,2013-01-23 11:44:00,
2013-01-23 06:49:00,52.2,43.5,30.30,NW,323,1.0,6.0,72,0.00,,CLR,0.00,VWS V14.01,2013-01-23 11:49:00,
2013-01-23 06:54:00,52.1,43.4,30.30,NW,325,1.0,6.0,72,0.00,,CLR,0.00,VWS V14.01,2013-01-23 11:54:00,
2013-01-23 06:59:00,52.1,43.4,30.30,NW,323,0.0,6.0,72,0.00,,CLR,0.00,VWS V14.01,2013-01-23 11:59:00,
2013-01-23 07:04:00,52.0,43.3,30.30,NNW,341,2.0,4.0,72,0.00,,CLR,0.00,VWS V14.01,2013-01-23 12:04:00,
2013-01-23 07:09:00,52.0,43.6,30.30,NW,317,1.0,5.0,73,0.00,,CLR,0.00,VWS V14.01,2013-01-23 12:09:00,
2013-01-23 07:14:00,52.0,43.3,30.30,NW,316,4.0,5.0,72,0.00,,CLR,0.00,VWS V14.01,2013-01-23 12:14:00,
2013-01-23 07:19:00,52.0,43.3,30.30,NNW,345,0.0,5.0,72,0.00,,CLR,0.00,VWS V14.01,2013-01-23 12:19:00,
2013-01-23 07:24:00,52.0,43.6,30.30,NNW,329,2.0,6.0,73,0.00,,CLR,0.00,VWS V14.01,2013-01-23 12:24:00,
2013-01-23 07:29:00,52.0,43.6,30.31,NW,314,0.0,6.0,73,0.00,,CLR,0.00,VWS V14.01,2013-01-23 12:29:00,
2013-01-23 07:34:00,52.1,44.1,30.30,NW,307,0.0,6.0,74,0.00,,CLR,0.00,VWS V14.01,2013-01-23 12:34:00,
2013-01-23 07:39:00,52.1,44.1,30.30,NW,316,2.0,6.0,74,0.00,,CLR,0.00,VWS V14.01,2013-01-23 12:39:00,
2013-01-23 07:44:00,52.2,44.2,30.31,NW,309,3.0,7.0,74,0.00,,CLR,0.00,VWS V14.01,2013-01-23 12:44:00,
2013-01-23 07:49:00,52.4,44.7,30.31,NW,325,0.0,7.0,75,0.00,,CLR,0.00,VWS V14.01,2013-01-23 12:49:00,
2013-01-23 07:54:00,52.5,44.8,30.31,NNW,336,0.0,7.0,75,0.00,,CLR,0.00,VWS V14.01,2013-01-23 12:54:00,
2013-01-23 07:59:00,52.7,45.4,30.30,NW,309,4.0,7.0,76,0.00,,CLR,0.00,VWS V14.01,2013-01-23 12:59:00,
2013-01-23 08:04:00,52.9,45.5,30.31,NW,322,3.0,8.0,76,0.00,,CLR,0.00,VWS V14.01,2013-01-23 13:04:00,
2013-01-23 08:09:00,53.1,46.1,30.31,NW,326,3.0,8.0,77,0.00,,CLR,0.00,VWS V14.01,2013-01-23 13:09:00,
2013-01-23 08:14:00,53.3,46.3,30.31,NW,310,5.0,8.0,77,0.00,,CLR,0.00,VWS V14.01,2013-01-23 13:14:00,
2013-01-23 08:19:00,53.6,46.6,30.31,NW,319,3.0,8.0,77,0.00,,CLR,0.00,VWS V14.01,2013-01-23 13:19:00,
2013-01-23 08:24:00,54.0,47.0,30.32,NW,322,4.0,9.0,77,0.00,,CLR,0.00,VWS V14.01,2013-01-23 13:24:00,
2013-01-23 08:29:00,54.6,47.5,30.32,NW,309,0.0,9.0,77,0.00,,CLR,0.00,VWS V14.01,2013-01-23 13:29:00,
2013-01-23 08:34:00,55.2,47.8,30.32,NNE,14,4.0,9.0,76,0.00,,CLR,0.00,VWS V14.01,2013-01-23 13:34:00,
2013-01-23 08:39:00,55.9,48.1,30.32,NW,320,0.0,9.0,75,0.00,,CLR,0.00,VWS V14.01,2013-01-23 13:39:00,
2013-01-23 08:44:00,56.4,48.6,30.32,NW,312,4.0,9.0,75,0.00,,CLR,0.00,VWS V14.01,2013-01-23 13:44:00,
2013-01-23 08:49:00,56.8,49.0,30.32,NW,313,5.0,9.0,75,0.00,,CLR,0.00,VWS V14.01,2013-01-23 13:49:00,
2013-01-23 08:54:00,57.4,49.5,30.32,NW,314,8.0,9.0,75,0.00,,CLR,0.00,VWS V14.01,2013-01-23 13:54:00,
2013-01-23 08:59:00,57.9,50.0,30.32,NW,305,4.0,9.0,75,0.00,,CLR,0.00,VWS V14.01,2013-01-23 13:59:00,
2013-01-23 09:04:00,58.6,50.0,30.33,NNW,332,2.0,9.0,73,0.00,,CLR,0.00,VWS V14.01,2013-01-23 14:04:00,
2013-01-23 09:09:00,59.2,50.6,30.33,NNW,345,4.0,9.0,73,0.00,,CLR,0.00,VWS V14.01,2013-01-23 14:09:00,
2013-01-23 09:14:00,59.8,51.1,30.33,North,2,2.0,9.0,73,0.00,,CLR,0.00,VWS V14.01,2013-01-23 14:14:00,
2013-01-23 09:19:00,60.3,50.9,30.33,North,356,3.0,9.0,71,0.00,,CLR,0.00,VWS V14.01,2013-01-23 14:19:00,
2013-01-23 09:24:00,60.9,51.5,30.33,North,1,5.0,10.0,71,0.00,,CLR,0.00,VWS V14.01,2013-01-23 14:24:00,
2013-01-23 09:29:00,61.3,51.5,30.33,North,349,4.0,10.0,70,0.00,,CLR,0.00,VWS V14.01,2013-01-23 14:29:00,
2013-01-23 09:34:00,61.5,51.2,30.33,NNW,338,4.0,10.0,69,0.00,,CLR,0.00,VWS V14.01,2013-01-23 14:34:00,
2013-01-23 09:39:00,61.6,51.3,30.34,WNW,302,2.0,10.0,69,0.00,,CLR,0.00,VWS V14.01,2013-01-23 14:39:00,
2013-01-23 09:44:00,61.8,51.5,30.34,NNE,19,2.0,11.0,69,0.00,,CLR,0.00,VWS V14.01,2013-01-23 14:44:00,
2013-01-23 09:49:00,61.9,52.8,30.34,NW,323,0.0,11.0,72,0.00,,CLR,0.00,VWS V14.01,2013-01-23 14:49:00,
2013-01-23 09:54:00,62.2,52.3,30.34,North,355,3.0,12.0,70,0.00,,CLR,0.00,VWS V14.01,2013-01-23 14:54:00,
2013-01-23 09:59:00,62.4,52.5,30.34,North,1,4.0,12.0,70,0.00,,CLR,0.00,VWS V14.01,2013-01-23 14:59:00,
2013-01-23 10:04:00,62.6,52.3,30.34,NNW,343,7.0,11.0,69,0.00,,CLR,0.00,VWS V14.01,2013-01-23 15:04:00,
2013-01-23 10:09:00,62.9,52.6,30.34,North,354,4.0,11.0,69,0.00,,CLR,0.00,VWS V14.01,2013-01-23 15:09:00,
2013-01-23 10:14:00,62.9,52.2,30.34,NNW,340,3.0,11.0,68,0.00,,CLR,0.00,VWS V14.01,2013-01-23 15:14:00,
2013-01-23 10:19:00,63.1,52.8,30.34,North,358,3.0,13.0,69,0.00,,CLR,0.00,VWS V14.01,2013-01-23 15:19:00,
2013-01-23 10:24:00,63.1,52.4,30.34,North,352,1.0,13.0,68,0.00,,CLR,0.00,VWS V14.01,2013-01-23 15:24:00,
2013-01-23 10:29:00,63.1,52.8,30.34,NNW,330,2.0,13.0,69,0.00,,CLR,0.00,VWS V14.01,2013-01-23 15:29:00,
2013-01-23 10:34:00,63.4,53.1,30.34,NNE,23,7.0,13.0,69,0.00,,CLR,0.00,VWS V14.01,2013-01-23 15:34:00,
2013-01-23 10:39:00,63.8,53.0,30.34,North,7,10.0,13.0,68,0.00,,CLR,0.00,VWS V14.01,2013-01-23 15:39:00,
2013-01-23 10:44:00,63.7,53.0,30.34,NNW,332,3.0,13.0,68,0.00,,CLR,0.00,VWS V14.01,2013-01-23 15:44:00,
2013-01-23 10:49:00,63.6,53.3,30.34,NNE,26,9.0,13.0,69,0.00,,CLR,0.00,VWS V14.01,2013-01-23 15:49:00,
2013-01-23 10:54:00,63.8,53.5,30.34,NNE,15,6.0,13.0,69,0.00,,CLR,0.00,VWS V14.01,2013-01-23 15:54:00,
2013-01-23 10:59:00,64.1,54.1,30.34,North,1,10.0,13.0,70,0.00,,CLR,0.00,VWS V14.01,2013-01-23 15:59:00,
2013-01-23 11:04:00,64.1,54.1,30.34,NNE,18,6.0,13.0,70,0.00,,CLR,0.00,VWS V14.01,2013-01-23 16:04:00,
2013-01-23 11:09:00,64.3,54.7,30.34,NW,315,4.0,13.0,71,0.00,,CLR,0.00,VWS V14.01,2013-01-23 16:09:00,
2013-01-23 11:14:00,64.5,54.5,30.34,NE,35,5.0,13.0,70,0.00,,CLR,0.00,VWS V14.01,2013-01-23 16:14:00,
2013-01-23 11:19:00,64.7,54.3,30.34,North,351,6.0,13.0,69,0.00,,CLR,0.00,VWS V14.01,2013-01-23 16:19:00,
2013-01-23 11:24:00,64.9,55.3,30.33,NNE,18,12.0,13.0,71,0.00,,CLR,0.00,VWS V14.01,2013-01-23 16:24:00,
2013-01-23 11:29:00,65.0,54.6,30.34,North,0,11.0,13.0,69,0.00,,CLR,0.00,VWS V14.01,2013-01-23 16:29:00,
2013-01-23 11:34:00,65.0,54.6,30.33,North,2,3.0,13.0,69,0.00,,CLR,0.00,VWS V14.01,2013-01-23 16:34:00,
2013-01-23 11:39:00,65.1,54.7,30.33,ENE,63,0.0,13.0,69,0.00,,CLR,0.00,VWS V14.01,2013-01-23 16:39:00,
2013-01-23 11:44:00,65.2,54.8,30.33,NNE,18,5.0,13.0,69,0.00,,CLR,0.00,VWS V14.01,2013-01-23 16:44:00,
2013-01-23 11:49:00,65.1,54.7,30.33,North,6,2.0,13.0,69,0.00,,CLR,0.00,VWS V14.01,2013-01-23 16:49:00,
2013-01-23 11:54:00,65.3,54.9,30.32,North,351,5.0,13.0,69,0.00,,CLR,0.00,VWS V14.01,2013-01-23 16:54:00,
2013-01-23 11:59:00,65.2,55.2,30.32,NNE,16,9.0,13.0,70,0.00,,CLR,0.00,VWS V14.01,2013-01-23 16:59:00,
2013-01-23 12:04:00,65.2,54.8,30.32,North,359,8.0,11.0,69,0.00,,CLR,0.00,VWS V14.01,2013-01-23 17:04:00,
2013-01-23 12:09:00,65.3,55.7,30.32,North,5,4.0,11.0,71,0.00,,CLR,0.00,VWS V14.01,2013-01-23 17:09:00,
2013-01-23 12:14:00,65.7,55.3,30.32,NNE,24,8.0,13.0,69,0.00,,CLR,0.00,VWS V14.01,2013-01-23 17:14:00,
2013-01-23 12:19:00,65.7,55.3,30.31,North,356,4.0,14.0,69,0.00,,CLR,0.00,VWS V14.01,2013-01-23 17:19:00,
2013-01-23 12:24:00,66.0,55.5,30.32,NNE,23,4.0,14.0,69,0.00,,CLR,0.00,VWS V14.01,2013-01-23 17:24:00,
2013-01-23 12:29:00,66.3,55.8,30.32,NNE,13,3.0,14.0,69,0.00,,CLR,0.00,VWS V14.01,2013-01-23 17:29:00,
2013-01-23 12:34:00,66.2,55.3,30.31,NNW,341,5.0,14.0,68,0.00,,CLR,0.00,VWS V14.01,2013-01-23 17:34:00,
2013-01-23 12:39:00,66.3,55.4,30.31,North,10,8.0,14.0,68,0.00,,CLR,0.00,VWS V14.01,2013-01-23 17:39:00,
2013-01-23 12:44:00,66.2,54.9,30.31,North,357,5.0,14.0,67,0.00,,CLR,0.00,VWS V14.01,2013-01-23 17:44:00,
2013-01-23 12:49:00,66.4,55.1,30.31,North,4,7.0,14.0,67,0.00,,CLR,0.00,VWS V14.01,2013-01-23 17:49:00,
2013-01-23 12:54:00,66.4,55.1,30.31,North,1,6.0,14.0,67,0.00,,CLR,0.00,VWS V14.01,2013-01-23 17:54:00,
2013-01-23 12:59:00,66.2,54.5,30.30,North,357,2.0,15.0,66,0.00,,CLR,0.00,VWS V14.01,2013-01-23 17:59:00,
2013-01-23 13:04:00,66.1,55.2,30.30,North,353,6.0,12.0,68,0.00,,CLR,0.00,VWS V14.01,2013-01-23 18:04:00,
2013-01-23 13:09:00,66.2,55.3,30.29,NW,324,2.0,12.0,68,0.00,,CLR,0.00,VWS V14.01,2013-01-23 18:09:00,
2013-01-23 13:14:00,66.4,55.1,30.29,NNW,334,0.0,12.0,67,0.00,,CLR,0.00,VWS V14.01,2013-01-23 18:14:00,
2013-01-23 13:19:00,66.3,55.0,30.29,NNW,339,4.0,13.0,67,0.00,,CLR,0.00,VWS V14.01,2013-01-23 18:19:00,
2013-01-23 13:24:00,66.2,54.9,30.28,NNE,17,10.0,13.0,67,0.00,,CLR,0.00,VWS V14.01,2013-01-23 18:24:00,
2013-01-23 13:29:00,66.2,55.3,30.29,North,354,11.0,14.0,68,0.00,,CLR,0.00,VWS V14.01,2013-01-23 18:29:00,
2013-01-23 13:34:00,66.3,55.4,30.28,NNW,340,2.0,14.0,68,0.00,,CLR,0.00,VWS V14.01,2013-01-23 18:34:00,
2013-01-23 13:39:00,66.5,54.8,30.29,North,7,7.0,14.0,66,0.00,,CLR,0.00,VWS V14.01,2013-01-23 18:39:00,
2013-01-23 13:44:00,66.2,54.9,30.29,NNE,24,10.0,15.0,67,0.00,,CLR,0.00,VWS V14.01,2013-01-23 18:44:00,
2013-01-23 13:49:00,66.2,54.9,30.28,North,356,5.0,15.0,67,0.00,,CLR,0.00,VWS V14.01,2013-01-23 18:49:00,
2013-01-23 13:54:00,66.0,54.7,30.29,North,8,8.0,15.0,67,0.00,,CLR,0.00,VWS V14.01,2013-01-23 18:54:00,
2013-01-23 13:59:00,65.8,54.5,30.28,NNW,334,3.0,15.0,67,0.00,,CLR,0.00,VWS V14.01,2013-01-23 18:59:00,
2013-01-23 14:04:00,65.8,55.0,30.28,NNE,18,14.0,15.0,68,0.00,,CLR,0.00,VWS V14.01,2013-01-23 19:04:00,
2013-01-23 14:09:00,65.9,54.7,30.28,North,352,4.0,15.0,67,0.00,,CLR,0.00,VWS V14.01,2013-01-23 19:09:00,
2013-01-23 14:14:00,66.0,54.3,30.28,North,351,5.0,15.0,66,0.00,,CLR,0.00,VWS V14.01,2013-01-23 19:14:00,
2013-01-23 14:19:00,65.8,54.1,30.28,North,8,10.0,15.0,66,0.00,,CLR,0.00,VWS V14.01,2013-01-23 19:19:00,
2013-01-23 14:24:00,65.7,54.5,30.28,NNE,14,6.0,15.0,67,0.00,,CLR,0.00,VWS V14.01,2013-01-23 19:24:00,
2013-01-23 14:29:00,65.7,54.5,30.29,NNE,16,11.0,15.0,67,0.00,,CLR,0.00,VWS V14.01,2013-01-23 19:29:00,
2013-01-23 14:34:00,65.6,54.8,30.28,NNW,347,3.0,16.0,68,0.00,,CLR,0.00,VWS V14.01,2013-01-23 19:34:00,
2013-01-23 14:39:00,65.6,54.0,30.28,NW,305,2.0,16.0,66,0.00,,CLR,0.00,VWS V14.01,2013-01-23 19:39:00,
2013-01-23 14:44:00,65.5,54.3,30.28,NE,54,5.0,16.0,67,0.00,,CLR,0.00,VWS V14.01,2013-01-23 19:44:00,
2013-01-23 14:49:00,65.6,53.5,30.28,NNE,12,8.0,16.0,65,0.00,,CLR,0.00,VWS V14.01,2013-01-23 19:49:00,
2013-01-23 14:54:00,65.4,53.8,30.27,North,7,5.0,16.0,66,0.00,,CLR,0.00,VWS V14.01,2013-01-23 19:54:00,
2013-01-23 15:00:00,65.5,53.4,30.27,North,355,7.0,16.0,65,0.00,,CLR,0.00,VWS V14.01,2013-01-23 20:00:00,
2013-01-23 15:05:00,65.4,53.3,30.27,NE,43,4.0,10.0,65,0.00,,CLR,0.00,VWS V14.01,2013-01-23 20:05:00,
2013-01-23 15:10:00,65.5,53.4,30.27,NNE,25,6.0,10.0,65,0.00,,CLR,0.00,VWS V14.01,2013-01-23 20:10:00,
2013-01-23 15:15:00,65.4,52.9,30.27,North,359,1.0,12.0,64,0.00,,CLR,0.00,VWS V14.01,2013-01-23 20:15:00,
2013-01-23 15:20:00,65.3,52.8,30.27,North,0,0.0,13.0,64,0.00,,CLR,0.00,VWS V14.01,2013-01-23 20:20:00,
2013-01-23 15:25:00,65.3,52.4,30.28,NNE,16,1.0,13.0,63,0.00,,CLR,0.00,VWS V14.01,2013-01-23 20:25:00,
2013-01-23 15:30:00,65.2,52.7,30.28,NNE,12,5.0,13.0,64,0.00,,CLR,0.00,VWS V14.01,2013-01-23 20:30:00,
2013-01-23 15:35:00,65.3,53.2,30.28,NNE,23,0.0,13.0,65,0.00,,CLR,0.00,VWS V14.01,2013-01-23 20:35:00,
2013-01-23 15:40:00,65.3,52.4,30.28,NNE,21,5.0,13.0,63,0.00,,CLR,0.00,VWS V14.01,2013-01-23 20:40:00,
2013-01-23 15:45:00,65.2,52.3,30.28,NNE,31,5.0,13.0,63,0.00,,CLR,0.00,VWS V14.01,2013-01-23 20:45:00,
2013-01-23 15:50:00,65.1,52.2,30.28,North,9,3.0,13.0,63,0.00,,CLR,0.00,VWS V14.01,2013-01-23 20:50:00,
2013-01-23 15:55:00,65.0,52.5,30.29,North,1,5.0,13.0,64,0.00,,CLR,0.00,VWS V14.01,2013-01-23 20:55:00,
2013-01-23 16:00:00,64.9,51.6,30.29,NNE,17,4.0,6.0,62,0.00,,CLR,0.00,VWS V14.01,2013-01-23 21:00:00,
2013-01-23 16:05:00,64.7,51.8,30.29,NW,313,3.0,9.0,63,0.00,,CLR,0.00,VWS V14.01,2013-01-23 21:05:00,
2013-01-23 16:10:00,64.5,51.6,30.29,North,349,2.0,10.0,63,0.00,,CLR,0.00,VWS V14.01,2013-01-23 21:10:00,
2013-01-23 16:15:00,64.4,52.0,30.29,North,356,6.0,11.0,64,0.00,,CLR,0.00,VWS V14.01,2013-01-23 21:15:00,
2013-01-23 16:20:00,64.2,51.8,30.29,North,349,4.0,11.0,64,0.00,,CLR,0.00,VWS V14.01,2013-01-23 21:20:00,
2013-01-23 16:25:00,64.2,51.4,30.29,NNE,29,4.0,11.0,63,0.00,,CLR,0.00,VWS V14.01,2013-01-23 21:25:00,
2013-01-23 16:30:00,64.1,50.8,30.29,NNE,18,1.0,11.0,62,0.00,,CLR,0.00,VWS V14.01,2013-01-23 21:30:00,
2013-01-23 16:35:00,63.9,50.6,30.29,North,349,4.0,11.0,62,0.00,,CLR,0.00,VWS V14.01,2013-01-23 21:35:00,
2013-01-23 16:40:00,63.9,51.1,30.29,NNW,340,4.0,11.0,63,0.00,,CLR,0.00,VWS V14.01,2013-01-23 21:40:00,
2013-01-23 16:45:00,63.7,50.5,30.29,NNE,15,7.0,12.0,62,0.00,,CLR,0.00,VWS V14.01,2013-01-23 21:45:00,
2013-01-23 16:50:00,63.6,50.8,30.29,NNE,19,4.0,12.0,63,0.00,,CLR,0.00,VWS V14.01,2013-01-23 21:50:00,
2013-01-23 16:55:00,63.6,50.8,30.30,North,4,7.0,12.0,63,0.00,,CLR,0.00,VWS V14.01,2013-01-23 21:55:00,
2013-01-23 17:00:00,63.5,50.7,30.29,North,356,0.0,1.0,63,0.00,,CLR,0.00,VWS V14.01,2013-01-23 22:00:00,
2013-01-23 17:05:00,63.4,50.2,30.29,NNW,336,3.0,6.0,62,0.00,,CLR,0.00,VWS V14.01,2013-01-23 22:05:00,
2013-01-23 17:10:00,63.3,50.5,30.29,NNW,338,5.0,13.0,63,0.00,,CLR,0.00,VWS V14.01,2013-01-23 22:10:00,
2013-01-23 17:15:00,63.1,50.3,30.29,North,2,5.0,13.0,63,0.00,,CLR,0.00,VWS V14.01,2013-01-23 22:15:00,
2013-01-23 17:20:00,63.0,50.2,30.30,North,3,5.0,13.0,63,0.00,,CLR,0.00,VWS V14.01,2013-01-23 22:20:00,
2013-01-23 17:25:00,62.8,50.5,30.29,North,356,0.0,13.0,64,0.00,,CLR,0.00,VWS V14.01,2013-01-23 22:25:00,
2013-01-23 17:30:00,62.7,50.4,30.29,NNW,341,1.0,13.0,64,0.00,,CLR,0.00,VWS V14.01,2013-01-23 22:30:00,
2013-01-23 17:35:00,62.5,50.2,30.30,North,11,5.0,13.0,64,0.00,,CLR,0.00,VWS V14.01,2013-01-23 22:35:00,
2013-01-23 17:40:00,62.4,50.5,30.30,NE,42,1.0,13.0,65,0.00,,CLR,0.00,VWS V14.01,2013-01-23 22:40:00,
2013-01-23 17:45:00,62.2,51.1,30.29,NNW,331,0.0,13.0,67,0.00,,CLR,0.00,VWS V14.01,2013-01-23 22:45:00,
2013-01-23 17:50:00,62.0,50.5,30.29,NNE,31,2.0,13.0,66,0.00,,CLR,0.00,VWS V14.01,2013-01-23 22:50:00,
2013-01-23 17:55:00,61.9,50.8,30.29,North,357,0.0,13.0,67,0.00,,CLR,0.00,VWS V14.01,2013-01-23 22:55:00,
2013-01-23 18:00:00,61.7,50.6,30.29,North,355,3.0,5.0,67,0.00,,CLR,0.00,VWS V14.01,2013-01-23 23:00:00,
2013-01-23 18:05:00,61.5,51.2,30.29,North,6,0.0,5.0,69,0.00,,CLR,0.00,VWS V14.01,2013-01-23 23:05:00,
2013-01-23 18:10:00,61.4,50.8,30.29,NNW,347,0.0,7.0,68,0.00,,CLR,0.00,VWS V14.01,2013-01-23 23:10:00,
2013-01-23 18:15:00,61.3,51.1,30.30,North,3,0.0,7.0,69,0.00,,CLR,0.00,VWS V14.01,2013-01-23 23:15:00,
2013-01-23 18:20:00,61.2,51.0,30.29,North,6,2.0,7.0,69,0.00,,CLR,0.00,VWS V14.01,2013-01-23 23:20:00,
2013-01-23 18:25:00,61.3,51.5,30.29,NNW,344,0.0,7.0,70,0.00,,CLR,0.00,VWS V14.01,2013-01-23 23:25:00,
2013-01-23 18:30:00,61.2,51.3,30.30,NW,316,0.0,7.0,70,0.00,,CLR,0.00,VWS V14.01,2013-01-23 23:30:00,
2013-01-23 18:35:00,61.2,51.7,30.30,NNW,346,0.0,7.0,71,0.00,,CLR,0.00,VWS V14.01,2013-01-23 23:35:00,
2013-01-23 18:40:00,61.2,52.1,30.30,NNW,337,0.0,7.0,72,0.00,,CLR,0.00,VWS V14.01,2013-01-23 23:40:00,
2013-01-23 18:45:00,61.1,51.6,30.30,North,0,0.0,7.0,71,0.00,,CLR,0.00,VWS V14.01,2013-01-23 23:45:00,
2013-01-23 18:50:00,61.1,52.0,30.30,North,0,1.0,7.0,72,0.00,,CLR,0.00,VWS V14.01,2013-01-23 23:50:00,
2013-01-23 18:55:00,61.1,51.6,30.30,North,9,0.0,7.0,71,0.00,,CLR,0.00,VWS V14.01,2013-01-23 23:55:00,
2013-01-23 19:00:00,61.1,52.0,30.30,NNE,13,0.0,1.0,72,0.00,,CLR,0.00,VWS V14.01,2013-01-24 00:00:00,
2013-01-23 19:05:00,61.0,52.3,30.31,North,10,2.0,2.0,73,0.00,,CLR,0.00,VWS V14.01,2013-01-24 00:05:00,
2013-01-23 19:10:00,61.0,52.3,30.30,North,7,0.0,3.0,73,0.00,,CLR,0.00,VWS V14.01,2013-01-24 00:10:00,
2013-01-23 19:15:00,60.9,52.2,30.30,North,5,3.0,3.0,73,0.00,,CLR,0.00,VWS V14.01,2013-01-24 00:15:00,
2013-01-23 19:20:00,60.9,52.6,30.30,North,4,0.0,3.0,74,0.00,,CLR,0.00,VWS V14.01,2013-01-24 00:20:00,
2013-01-23 19:25:00,60.7,52.0,30.30,North,0,1.0,3.0,73,0.00,,CLR,0.00,VWS V14.01,2013-01-24 00:25:00,
2013-01-23 19:30:00,60.6,51.5,30.29,North,0,0.0,3.0,72,0.00,,CLR,0.00,VWS V14.01,2013-01-24 00:30:00,
2013-01-23 19:35:00,60.5,51.4,30.30,North,356,0.0,3.0,72,0.00,,CLR,0.00,VWS V14.01,2013-01-24 00:35:00,
2013-01-23 19:40:00,60.4,51.7,30.31,North,357,0.0,3.0,73,0.00,,CLR,0.00,VWS V14.01,2013-01-24 00:40:00,
2013-01-23 19:45:00,60.3,52.0,30.30,North,350,0.0,3.0,74,0.00,,CLR,0.00,VWS V14.01,2013-01-24 00:45:00,
2013-01-23 19:50:00,60.2,51.9,30.30,North,351,0.0,3.0,74,0.00,,CLR,0.00,VWS V14.01,2013-01-24 00:50:00,
2013-01-23 19:55:00,60.2,51.9,30.31,North,352,0.0,3.0,74,0.00,,CLR,0.00,VWS V14.01,2013-01-24 00:55:00,
2013-01-23 20:00:00,60.2,52.3,30.31,NNW,343,0.0,0.0,75,0.00,,CLR,0.00,VWS V14.01,2013-01-24 01:00:00,
2013-01-23 20:05:00,60.2,52.3,30.30,NNW,345,0.0,1.0,75,0.00,,CLR,0.00,VWS V14.01,2013-01-24 01:05:00,
2013-01-23 20:10:00,60.1,52.2,30.31,NNW,348,0.0,2.0,75,0.00,,CLR,0.00,VWS V14.01,2013-01-24 01:10:00,
2013-01-23 20:15:00,60.0,52.4,30.30,NNW,333,0.0,2.0,76,0.00,,CLR,0.00,VWS V14.01,2013-01-24 01:15:00,
2013-01-23 20:20:00,59.9,52.3,30.31,NNW,339,0.0,2.0,76,0.00,,CLR,0.00,VWS V14.01,2013-01-24 01:20:00,
2013-01-23 20:25:00,59.7,51.8,30.31,North,358,0.0,2.0,75,0.00,,CLR,0.00,VWS V14.01,2013-01-24 01:25:00,
2013-01-23 20:30:00,59.6,52.0,30.30,North,353,0.0,2.0,76,0.00,,CLR,0.00,VWS V14.01,2013-01-24 01:30:00,
2013-01-23 20:35:00,59.4,51.8,30.31,NNW,348,0.0,2.0,76,0.00,,CLR,0.00,VWS V14.01,2013-01-24 01:35:00,
2013-01-23 20:40:00,59.3,52.1,30.32,NNW,348,0.0,2.0,77,0.00,,CLR,0.00,VWS V14.01,2013-01-24 01:40:00,
2013-01-23 20:45:00,59.2,51.7,30.31,NNW,343,0.0,2.0,76,0.00,,CLR,0.00,VWS V14.01,2013-01-24 01:45:00,
2013-01-23 20:50:00,59.0,51.8,30.31,NNW,342,0.0,2.0,77,0.00,,CLR,0.00,VWS V14.01,2013-01-24 01:50:00,
2013-01-23 20:55:00,58.9,51.7,30.32,North,353,0.0,2.0,77,0.00,,CLR,0.00,VWS V14.01,2013-01-24 01:55:00,
2013-01-23 21:00:00,58.7,51.5,30.31,North,350,0.0,0.0,77,0.00,,CLR,0.00,VWS V14.01,2013-01-24 02:00:00,
2013-01-23 21:05:00,58.5,51.0,30.31,North,357,0.0,0.0,76,0.00,,CLR,0.00,VWS V14.01,2013-01-24 02:05:00,
2013-01-23 21:10:00,58.4,51.2,30.31,North,355,0.0,0.0,77,0.00,,CLR,0.00,VWS V14.01,2013-01-24 02:10:00,
2013-01-23 21:15:00,58.3,51.1,30.32,North,357,0.0,0.0,77,0.00,,CLR,0.00,VWS V14.01,2013-01-24 02:15:00,
2013-01-23 21:20:00,58.2,51.0,30.31,NNW,347,0.0,0.0,77,0.00,,CLR,0.00,VWS V14.01,2013-01-24 02:20:00,
2013-01-23 21:25:00,58.0,50.8,30.31,North,357,0.0,0.0,77,0.00,,CLR,0.00,VWS V14.01,2013-01-24 02:25:00,
2013-01-23 21:30:00,57.9,50.7,30.31,North,355,0.0,0.0,77,0.00,,CLR,0.00,VWS V14.01,2013-01-24 02:30:00,
2013-01-23 21:35:00,57.7,50.9,30.30,NNW,340,0.0,0.0,78,0.00,,CLR,0.00,VWS V14.01,2013-01-24 02:35:00,
2013-01-23 21:40:00,57.6,50.8,30.31,NNW,344,0.0,0.0,78,0.00,,CLR,0.00,VWS V14.01,2013-01-24 02:40:00,
2013-01-23 21:45:00,57.4,50.6,30.31,North,357,0.0,0.0,78,0.00,,CLR,0.00,VWS V14.01,2013-01-24 02:45:00,
2013-01-23 21:50:00,57.3,50.8,30.32,NNW,342,0.0,0.0,79,0.00,,CLR,0.00,VWS V14.01,2013-01-24 02:50:00,
2013-01-23 21:55:00,57.1,50.0,30.32,North,357,0.0,0.0,77,0.00,,CLR,0.00,VWS V14.01,2013-01-24 02:55:00,
2013-01-23 22:00:00,57.0,50.2,30.31,NNW,348,0.0,0.0,78,0.00,,CLR,0.00,VWS V14.01,2013-01-24 03:00:00,
2013-01-23 22:05:00,56.8,49.7,30.31,NNW,344,0.0,0.0,77,0.00,,CLR,0.00,VWS V14.01,2013-01-24 03:05:00,
2013-01-23 22:10:00,56.7,50.3,30.31,NNW,338,0.0,0.0,79,0.00,,CLR,0.00,VWS V14.01,2013-01-24 03:10:00,
2013-01-23 22:15:00,56.5,49.7,30.31,North,350,0.0,0.0,78,0.00,,CLR,0.00,VWS V14.01,2013-01-24 03:15:00,
2013-01-23 22:20:00,56.4,50.0,30.31,NNW,340,0.0,0.0,79,0.00,,CLR,0.00,VWS V14.01,2013-01-24 03:20:00,
2013-01-23 22:25:00,56.2,49.1,30.31,North,358,0.0,0.0,77,0.00,,CLR,0.00,VWS V14.01,2013-01-24 03:25:00,
2013-01-23 22:30:00,56.1,49.3,30.30,North,358,0.0,0.0,78,0.00,,CLR,0.00,VWS V14.01,2013-01-24 03:30:00,
2013-01-23 22:35:00,55.9,49.2,30.30,North,358,0.0,0.0,78,0.00,,CLR,0.00,VWS V14.01,2013-01-24 03:35:00,
2013-01-23 22:40:00,55.8,49.0,30.31,North,358,0.0,0.0,78,0.00,,CLR,0.00,VWS V14.01,2013-01-24 03:40:00,
2013-01-23 22:45:00,55.7,49.0,30.31,North,358,0.0,0.0,78,0.00,,CLR,0.00,VWS V14.01,2013-01-24 03:45:00,
2013-01-23 22:50:00,55.5,48.8,30.30,North,357,0.0,1.0,78,0.00,,CLR,0.00,VWS V14.01,2013-01-24 03:50:00,
2013-01-23 22:55:00,55.3,48.9,30.31,North,356,0.0,2.0,79,0.00,,CLR,0.00,VWS V14.01,2013-01-24 03:55:00,
2013-01-23 23:00:00,55.1,48.7,30.31,North,356,0.0,0.0,79,0.00,,CLR,0.00,VWS V14.01,2013-01-24 04:00:00,
2013-01-23 23:05:00,55.0,49.0,30.31,North,352,0.0,1.0,80,0.00,,CLR,0.00,VWS V14.01,2013-01-24 04:05:00,
2013-01-23 23:10:00,54.8,49.1,30.31,North,354,0.0,1.0,81,0.00,,CLR,0.00,VWS V14.01,2013-01-24 04:10:00,
2013-01-23 23:15:00,54.7,49.3,30.30,NNW,339,0.0,1.0,82,0.00,,CLR,0.00,VWS V14.01,2013-01-24 04:15:00,
2013-01-23 23:20:00,54.6,48.9,30.30,North,351,0.0,1.0,81,0.00,,CLR,0.00,VWS V14.01,2013-01-24 04:20:00,
2013-01-23 23:25:00,54.5,48.8,30.30,North,349,0.0,1.0,81,0.00,,CLR,0.00,VWS V14.01,2013-01-24 04:25:00,
2013-01-23 23:30:00,54.5,49.1,30.30,NNW,338,0.0,1.0,82,0.00,,CLR,0.00,VWS V14.01,2013-01-24 04:30:00,
2013-01-23 23:35:00,54.3,48.9,30.29,NNW,343,0.0,1.0,82,0.00,,CLR,0.00,VWS V14.01,2013-01-24 04:35:00,
2013-01-23 23:40:00,54.3,48.9,30.30,North,352,0.0,1.0,82,0.00,,CLR,0.00,VWS V14.01,2013-01-24 04:40:00,
2013-01-23 23:45:00,54.2,48.8,30.30,North,351,0.0,1.0,82,0.00,,CLR,0.00,VWS V14.01,2013-01-24 04:45:00,
2013-01-23 23:50:00,54.2,48.8,30.29,North,350,0.0,1.0,82,0.00,,CLR,0.00,VWS V14.01,2013-01-24 04:50:00,
2013-01-23 23:55:00,54.1,49.1,30.31,NNW,348,0.0,1.0,83,0.00,,CLR,0.00,VWS V14.01,2013-01-24 04:55:00,